Regional Weather Roundup
Issued by NWS Burlington, VT

Current Version | Previous Version | Graphics & Text | Print | Product List | Glossary On
Versions: 1 2 3 4 5 6 7 8 9 10 11 12 13 14 15 16 17 18 19 20 21 22 23 24 25 26 27 28 29 30 31 32 33 34 35 36 37 38 39 40 41 42 43 44 45 46 47 48 49 50
000
ASUS41 KBTV 270311
RWRBTV
VERMONT REGIONAL WEATHER ROUNDUP
NATIONAL WEATHER SERVICE BURLINGTON VT
1100 PM EDT MON OCT 26 2020

NOTE: "FAIR" INDICATES FEW OR NO CLOUDS BELOW 12,000 FEET WITH NO
SIGNIFICANT WEATHER AND/OR OBSTRUCTIONS TO VISIBILITY.

* THESE REPORTS ARE NOT UNDER NWS QUALITY CONTROL AND/OR DO NOT
  REPORT WEATHER SUCH AS PRECIPITATION AND FOG.

VTZ001>019-270400-
_____VERMONT_____


CITY           SKY/WX    TMP DP  RH WIND       PRES   REMARKS
BURLINGTON     NOT AVBL
MONTPELIER     LGT RAIN  43  43 100 CALM      30.11R FOG
MORRISVILLE    CLOUDY    44  43  96 CALM      30.08F
ST. JOHNSBURY*   N/A     44  43  96 MISG      30.07R
LYNDONVILLE*   DRZL/FOG  42  41  97 CALM      30.09R VSB 1
MIDDLEBURY*    RAIN      47  46  97 CALM      30.08F
RUTLAND*       LGT RAIN  46  46 100 N6        30.09R FOG
SPRINGFIELD    CLOUDY    44  43  96 CALM      30.09S FOG
HIGHGATE*      DRIZZLE   41  38  90 NW5       30.14R
NEWPORT*       DRIZZLE   43  41  93 SW6       30.08S
BENNINGTON     CLOUDY    52  50  93 CALM      30.06S FOG
LAKE EDEN*       N/A     43 N/A N/A CALM        N/A

_____LAKE CHAMPLAIN_____


CITY           SKY/WX    TMP DP  RH WIND       PRES   REMARKS
BURTON ISLAND*   N/A     45  41  87 NW13        N/A
COLCHESTER RF*   N/A     48  43  81 N17         N/A
DIAMOND ISL*     N/A     48  46  93 S1          N/A

$$

NYZ007-026>031-035-052-083-087-270400-
_____NORTHERN NEW YORK_____


CITY           SKY/WX    TMP DP  RH WIND       PRES   REMARKS
PLATTSBURGH    CLOUDY    45  41  86 NW9       30.12R
SARANAC LAKE   CLOUDY    38  37  97 VRB7      30.11R
MASSENA        CLOUDY    39  37  92 W7        30.20R
OGDENSBURG*    CLOUDY    37  36  93 VRB5      30.18R
POTSDAM*       CLOUDY    37  37 100 NW5       30.18
WATERTOWN      CLOUDY    41  39  93 NE7       30.18R
FT DRUM        FOG       39  39 100 N7        30.16S VSB 1
ALBANY         DRIZZLE   48  48 100 CALM      30.11R FOG
GLENS FALLS    CLOUDY    46  45  96 CALM      30.09S FOG

$$
NHZ002-005-011-270400-
_____NEW HAMPSHIRE_____


CITY           SKY/WX    TMP DP  RH WIND       PRES   REMARKS
LEBANON        CLOUDY    46  43  89 N3        30.09R
KEENE          LGT RAIN  46  46 100 CALM      30.09F FOG
MT WASHINGTON  LGT RAIN  36  36 100 W41         N/A  VSB 1/16WCI  21
PLYMOUTH       LGT RAIN  41  41  98 CALM      30.09F
WHITEFIELD     LGT RAIN  42  40  92 CALM      30.07S FOG

$$

_____REGIONAL QUEBEC LOCATIONS_____


CITY           SKY/WX    TMP DP  RH WIND       PRES   REMARKS
MONTREAL       LGT RAIN  39  37  93 SW7       30.15R
QUEBEC CITY    LGT RAIN  34  34 100 SW7       30.07R WCI  28
SHERBROOKE     LGT RAIN  43  43 100 W9        30.05R FOG

_____REGIONAL ONTARIO LOCATIONS_____


CITY           SKY/WX    TMP DP  RH WIND       PRES   REMARKS
OTTAWA         LGT RAIN  36  34  93 NW9       30.18R WCI  29

______KEY______
VSB  - VISIBILITY IN MILES
WCI  - WIND CHILL INDEX
HX   - HEAT INDEX
$$
NNNN



USA.gov is the U.S. government's official web portal to all federal, state and local government web resources and services.